Location: Recife
(8.0585°S, 34.8848°W)
Time: 22:01:34
(UTC-03:00)

Vanguard 1 - Pass Details

Date: 16 April 2026
Orbit: 654 x 3817 km, 34.2° (Epoch: 12 May)

Event Time Altitude Azimuth Distance (km) Brightness Sun altitude
Rises 07:13:54 0° 315° (NW) 4,616 13.2 26.2°
Reaches altitude 10° 07:17:44 10° 320° (NW) 3,184 12.5 27.1°
Maximum altitude 07:24:31 47° 33° (NNE) 1,120 11.4 28.8°
Drops below altitude 10° 07:29:07 10° 107° (ESE) 2,160 12.8 29.9°
Sets 07:31:15 0° 113° (ESE) 2,996 13.2 30.4°
